Volver al catálogo

SL-8 DEB

ActivoPO
NORAD 29285·DEBRIS·🇷🇺 Russia

Lanzado Dec 17, 1981 desde Plesetsk Cosmodrome

Loading…

Próximos Pases (próximas 24 horas)

TLE

ActualizadoSource: Space-Track

Época: Sep 13, 2026, 18:22 UTC

1 29285U 81120P   26256.76554560  .00000024  00000-0  15592-3 0  9998
2 29285  82.9514 257.1835 0046279 271.4873 266.0233 12.13436923587015

Sigue SL-8 DEB en tiempo real con AllMySat

Download on the App Store